Regional Weather Roundup
Issued by NWS

Home | Current Version | Previous Version | Graphics & Text | Print | Product List | Glossary On
Versions: 1 2 3 4 5 6 7 8 9 10 11 12 13 14 15 16 17 18 19 20 21 22 23 24 25 26 27 28 29 30 31 32 33 34 35 36 37 38 39 40 41 42 43 44 45 46 47 48 49 50
000
ASUS43 KIND 291309
RWRIN

WEATHER ROUNDUP FOR INDIANA
NATIONAL WEATHER SERVICE INDIANAPOLIS IN
900 AM EDT MON MAY 29 2017

NOTE: "FAIR" INDICATES FEW OR NO CLOUDS BELOW 12,000 FEET WITH NO
SIGNIFICANT WEATHER AND/OR OBSTRUCTIONS TO VISIBILITY.

* - STATION DOES NOT REPORT WEATHER SUCH AS PRECIPITATION OR FOG.

+ - STATION NOT QUALITY CONTROLLED BY THE NATIONAL WEATHER SERVICE.
    USE DATA WITH CAUTION...ESPECIALLY DEWPOINT AND RELATIVE
    HUMIDITY OBSERVATIONS.

INZ001>003-010>013-019-020-291400-
NORTHWEST INDIANA

CITY           SKY/WX    TMP DP  RH WIND       PRES   REMARKS
GARY /AIRPORT/ SUNNY     68  48  49 W12       29.82S
KNOX *+        SUNNY     64  45  48 SW10      29.82S
LA PORTE +     SUNNY     64  54  69 SW8       29.83R
MICHIGAN CITY+ SUNNY     64  54  68 SW9       29.82R
MONTICELLO +   SUNNY     64  56  73 SW9       29.86R
RENSSELAER +   SUNNY     64  54  68 SW10      29.85S
VALPARAISO     SUNNY     66  55  67 SW12      29.83R

$$

LMZ046-743>745-291400-
SOUTHERN LAKE MICHIGAN

STATION/POSITION TIME  TEMP    WIND        PRES    WAVE
                       AIR SEA DIR/SP/G            HT
                 (UTC) (F)     (DEG/KT/KT) (MB)    (FT)
BURNS HARBOR     1240   65     240/ 10/ 12 1010.2R
MICHIGAN CITY    1240   63     210/ 10/ 11   N/A
5NW MICH CITY    1300   60 56  230/ 10/ 12   N/A     1

$$

INZ004-005-014>016-021>024-291400-
NORTH CENTRAL INDIANA

CITY           SKY/WX    TMP DP  RH WIND       PRES   REMARKS
ELKHART        SUNNY     64  54  68 SW8       29.81F
GOSHEN         SUNNY     65  54  67 SW9       29.82S
LOGANSPORT +   SUNNY     64  55  72 SW10      29.87R
PERU/GRISSOM   SUNNY     66  57  73 SW16      29.85S
ROCHESTER +    SUNNY     68  55  64 W9        29.85S
SOUTH BEND     SUNNY     64  54  69 SW13      29.81S
WARSAW +       SUNNY     64  54  68 SW10      29.83F

$$

INZ006>009-017-018-025>027-291400-
NORTHEAST INDIANA

CITY           SKY/WX    TMP DP  RH WIND       PRES   REMARKS
ANGOLA *+      MOSUNNY   64  55  72 SW8       29.82F
AUBURN +       SUNNY     64  55  72 S6        29.84F
FORT WAYNE     MOSUNNY   64  57  78 SW12      29.85F
HUNTINGTON +   SUNNY     64  58  80 SW7       29.85S
KENDALLVILLE + SUNNY     66  54  65 SW6       29.83F

$$

INZ028-029-035-036-043>045-051>053-291400-
WEST CENTRAL INDIANA

CITY           SKY/WX    TMP DP  RH WIND       PRES   REMARKS
CRAWFORDSVL +  SUNNY    -19 -23  84 SW8       29.89S WCI -38
GREENCASTLE +  SUNNY     64  55  72 CALM      29.91S
LAFAYETTE      SUNNY     64  57  78 SW7       29.86S
TERRE HAUTE    SUNNY     67  56  67 W12       29.90F

$$

INZ030>032-037>040-046>048-054>057-064-065-291400-
CENTRAL INDIANA

CITY           SKY/WX    TMP DP  RH WIND       PRES   REMARKS
CP ATTERBURY + SUNNY     64  61  88 SW6       29.92S
COLUMBUS       SUNNY     64  59  82 SW6       29.92F
FISHERS *+     SUNNY     64  61  88 SW6       29.89
FRANKFORT +    SUNNY     67  58  72 W13       29.89S
GREENWOOD *+   SUNNY     66  58  75 W7        29.92S
INDIANAPOLIS   MOSUNNY   65  58  78 SW10      29.89S
-EAGLE CREEK   SUNNY     66  57  72 SW6       29.89S
KOKOMO +       SUNNY     67  56  67 W10       29.87F
MARION +       SUNNY     64  55  72 SW12      29.88S
MT COMFORT *+    N/A    N/A N/A N/A MISG        N/A
SHELBYVILLE    SUNNY     65  59  81 SW8       29.90F
ZIONSVILLE +   SUNNY     65  56  72 SW9       29.89F

$$

INZ033-034-041-042-049-050-058-059-291400-
EAST CENTRAL INDIANA

CITY           SKY/WX    TMP DP  RH WIND       PRES   REMARKS
MUNCIE         SUNNY     67  56  67 SW10      29.88F
RICHMOND +     SUNNY     63  59  88 W10       29.93S

$$

INZ060-061-067>069-081>083-085>088-291400-
SOUTHWEST INDIANA

CITY           SKY/WX    TMP DP  RH WIND       PRES   REMARKS
EVANSVILLE     SUNNY     71  61  70 W7        29.95R
HUNTINGBURG *+ SUNNY     68  64  87 S6        29.95S
WASHINGTON +   SUNNY     68  57  69 W8        29.93R

$$

INZ062-063-066-070>080-084-089>092-291400-
SOUTH CENTRAL AND SOUTHEAST INDIANA

CITY           SKY/WX    TMP DP  RH WIND       PRES   REMARKS
BEDFORD +      SUNNY     68  59  73 SW5       29.93S
BLOOMINGTON    SUNNY     67  58  72 SW8       29.92S
MADISON *+     SUNNY     66  63  88 S5        29.96S
NORTH VERNON + SUNNY     64  61  88 SW6       29.94S
SEYMOUR +      SUNNY     70  59  68 SW8       29.93S

$$




USA.gov is the U.S. government's official web portal to all federal, state and local government web resources and services.